Tracking 28790 objects as of 19-Apr-2024
HD Live streaming from Space Station
objects crossing your sky now

OBJECT J

Track OBJECT J now!
10-day predictions


NORAD ID: 42833
Int'l Code: 2017-042J
Perigee: 575.8 km
Apogee: 590.6 km
Inclination: 97.4 °
Period: 96.2 minutes
Semi major axis: 6954 km
RCS: Unknown
Launch date: July 14, 2017
Source: (TBD)
Launch site: TYURATAM MISSILE AND SPACE COMPLEX (TTMTR)
Your satellite tracking list
Your tracking list is empty




NASA's NSSDC Master Catalog

Two Line Element Set (TLE):
1 42833U 17042J   24109.45329831  .00008893  00000-0  77544-3 0  9993
2 42833  97.3819 295.3739 0010602 268.3449  91.6559 14.97034520368335
Source of the keplerian elements: AFSPC